sat.trackr.live / text

‹ back to catalog

STARLINK-2019

NORAD 47641 · 2021-012X

PAYLOAD ACTIVE UNKNOWN

§ Identity

Operator
Country
US
Launch date
2021-02-16
Launch site
AFETR
Launch vehicle
Mass (kg)
RCS (m²)

Purposes: comms

External: N2YO · Heavens-Above · Gunter

§ Orbital elements

Epoch: 2026-05-25T02:42:05.947776Z

Period
91.46 min
Inclination
53.0397°
Eccentricity
0.0003321
Mean motion
15.74456926 rev/d
Perigee alt
343.9 km
Apogee alt
348.4 km
Semi-major
6,724.3 km
B*
7.2491e-4
RAAN
286.8212°
Arg perigee
278.8715°
Mean anomaly
81.1928°
Rev number
29,375

§ Raw data

STARLINK-20191 47641U 21012X   26145.11256884  .00108194  00000+0  72491-3 0  99992 47641  53.0397 286.8212 0003321 278.8715  81.1928 15.74456926293751

JSON: /api/v1/satellites/47641 · /tle

For live sub-satellite position, see the globe view (requires WebGL).

§ Visibility from observer

Set your observer location to see the next 7 days of passes ≥ 10°. The values pass through the URL so the page stays shareable.

No JS? Fill the form by hand. The geolocation button needs JavaScript.